RH
17 21 25 18 20 16 11 13 13 13 11 12 13 13 12 12 16 19 25 27 29 29 26 27 29 29 30 35 42 52 55 62 54 50 50 47 42 41 38 35 43 48 51 54
20 24 16 12 12 15 16 14 13 11 10 12 12 13 11 12 17 19 22 25 26 26 27 28 30 29 29 36 45 56 61 67 63 52 55 46 46 36 36 35 48 49 52 58
14 13 12 9 11 16 14 14 13 12 11 10 12 14 13 11 14 18 19 20 22 26 27 30 30 31 30 37 47 55 65 68 67 63 55 55 48 45 37 38 40 47 52 54
11 7 9 9 9 9 11 10 10 10 12 15 11 16 15 12 14 17 18 20 20 23 25 29 29 31 30 35 41 54 65 69 67 71 58 67 49 43 36 38 36 42 53 54
13 8 8 10 8 7 9 7 10 10 11 13 12 14 13 12 12 14 15 17 18 20 23 26 29 29 28 31 36 46 65 72 70 72 69 55 60 39 36 34 53 61 70 56
10 6 6 7 6 7 6 7 8 9 10 16 14 12 13 10 12 12 12 12 16 18 21 24 27 28 28 28 33 42 64 75 74 72 75 73 67 59 42 44 40 41 41 50
11 9 7 6 8 7 7 8 11 12 12 14 12 13 14 10 9 10 10 12 13 17 20 23 26 28 30 32 36 41 60 74 73 70 71 73 69 71 67 58 44 49 38 37
13 13 9 7 8 9 9 8 10 19 12 10 10 14 11 9 8 8 9 9 11 13 17 21 24 27 32 33 38 41 56 71 72 71 74 76 73 53 53 55 42 41 36 36
12 13 7 7 7 7 10 11 6 7 7 7 7 8 7 7 8 9 9 10 10 12 17 20 22 25 30 33 39 44 53 65 69 66 71 75 74 70 54 62 61 45 54 36
12 16 9 8 7 7 8 8 9 8 17 15 8 10 9 11 10 9 10 10 10 10 16 19 20 23 27 28 32 39 46 60 64 62 65 65 69 72 66 62 65 60 53 57
12 13 13 10 10 10 9 10 9 7 8 11 12 9 7 10 10 10 10 10 9 9 14 17 19 20 24 26 29 34 41 51 59 61 62 64 64 64 68 63 63 64 62 61
12 13 18 12 8 8 8 10 10 11 18 9 8 8 6 5 6 8 9 9 8 10 12 16 16 18 20 24 27 30 35 38 47 53 62 62 62 63 63 68 64 66 67 63
19 19 22 17 10 9 10 9 8 9 9 16 10 9 8 8 8 9 9 9 10 10 11 12 13 17 18 20 25 26 30 31 34 46 48 55 59 60 62 66 66 66 68 67
36 22 23 17 16 11 14 10 9 9 11 12 10 10 10 10 11 11 10 10 10 12 12 13 13 14 15 20 27 29 26 27 30 34 41 52 57 58 57 62 68 66 69 70
22 32 23 16 13 11 10 10 9 11 11 12 10 11 10 10 11 10 10 11 12 13 13 14 14 17 21 24 28 32 27 29 28 36 38 47 57 59 60 63 66 67 68 68
21 30 27 24 15 17 17 12 10 9 9 10 9 9 8 9 9 10 10 11 12 12 11 12 14 16 19 21 24 28 34 31 32 40 41 47 56 63 65 66 67 71 71 71
30 26 30 32 21 21 24 16 13 11 9 10 12 11 9 10 11 12 12 12 12 11 11 12 12 11 15 19 24 26 33 34 38 44 46 49 57 63 68 67 71 73 75 71
30 35 30 27 27 36 18 13 12 14 12 10 11 12 11 12 13 12 12 13 13 12 12 12 8 10 15 11 10 22 25 44 46 49 50 52 56 61 66 70 72 74 72 74
19 28 30 30 26 21 16 14 14 16 17 13 13 13 12 12 12 14 12 12 13 12 11 11 10 9 15 10 12 16 20 33 46 49 54 53 56 60 66 72 74 72 72 73
17 24 26 29 31 32 19 16 12 16 22 14 13 14 13 13 15 13 15 18 23 21 20 22 13 11 11 14 11 14 15 22 42 48 51 56 57 62 66 70 76 73 71 70
22 25 28 27 31 23 17 18 14 28 39 18 16 19 21 26 28 32 29 28 28 29 30 27 27 23 25 22 16 26 26 26 30 40 46 56 60 66 67 72 73 74 73 67
32 27 25 27 31 34 15 14 26 32 30 30 33 31 31 31 32 31 30 33 33 32 32 29 29 28 24 27 28 38 43 39 40 43 50 57 64 56 53 74 74 76 76 78
26 24 24 22 22 24 19 21 18 17 26 26 27 25 28 28 29 28 33 35 34 37 36 31 24 27 29 33 37 48 55 53 50 54 60 61 64 64 64 72 76 68 75 62
23 21 24 28 25 23 20 18 18 19 22 21 21 25 24 25 26 28 28 34 39 41 38 31 33 34 38 43 46 50 51 52 56 62 65 64 65 68 66 52 57 57 53 56
29 30 30 29 26 27 26 24 22 22 21 20 22 24 23 22 26 32 32 42 45 45 42 44 45 45 47 53 53 48 51 54 55 58 56 58 53 63 63 62 49 51 55 52
34 39 37 33 30 33 32 25 24 26 25 25 26 25 22 31 35 36 37 50 52 51 47 53 53 55 56 57 62 65 62 57 57 56 50 46 42 48 52 51 57 96 93 100
Wind_Speed
25 21 28 29 27 23 21 21 23 24 14 21 18 20 17 15 15 19 21 21 22 23 23 23 22 21 20 21 19 18 17 14 12 11 11 10 10 9 9 8 8 8 7 8
21 28 26 26 28 27 27 24 23 20 14 16 14 15 14 15 17 18 21 22 23 22 23 22 23 23 23 21 20 18 17 15 13 11 9 10 8 9 9 9 8 9 10 9
28 21 29 27 26 28 28 27 20 19 19 15 15 16 16 12 15 18 19 21 22 24 25 24 25 25 23 22 20 19 18 17 15 14 10 7 8 7 9 9 9 11 11 10
29 27 29 28 29 27 28 26 22 20 20 17 20 16 21 16 18 19 20 21 22 23 23 25 25 25 25 22 21 19 19 17 16 16 13 14 11 11 10 10 10 10 11 11
30 25 22 30 27 28 25 21 25 23 19 19 23 17 16 27 25 24 22 23 22 24 24 25 27 26 25 22 22 19 19 18 17 17 16 13 13 11 10 10 10 10 10 11
29 22 24 22 25 23 22 19 21 25 20 22 25 21 19 16 19 24 24 21 22 22 24 25 25 23 22 21 22 19 20 20 19 18 19 15 16 14 11 12 10 10 10 11
28 32 24 22 23 25 21 21 13 18 20 19 24 25 19 19 21 19 21 23 21 21 24 23 24 24 23 22 22 19 21 20 20 19 19 19 16 16 12 11 11 11 10 11
23 27 34 21 28 24 27 26 15 22 19 17 25 29 24 25 15 15 20 22 22 22 22 24 25 24 23 24 24 23 23 22 22 22 21 18 17 14 14 13 11 11 10 10
26 31 31 33 24 28 24 29 25 24 24 17 21 29 26 20 27 18 13 22 20 22 22 24 26 26 24 24 24 25 24 24 24 24 20 20 19 18 16 16 15 11 12 10
28 19 32 30 25 29 30 22 25 17 23 19 18 17 18 23 17 25 24 18 22 21 23 23 24 26 24 26 24 24 24 25 23 24 21 19 20 19 17 14 15 16 13 12
33 26 15 27 30 27 26 23 26 21 19 15 12 12 16 20 22 20 21 25 22 20 22 22 22 24 25 24 24 24 24 23 23 22 21 21 20 20 18 17 16 15 15 13
34 13 21 29 27 26 26 29 27 19 24 17 14 3 10 18 15 19 20 19 23 20 23 22 22 21 23 25 24 25 24 25 23 22 21 22 20 21 21 19 18 17 17 16
2 16 17 24 26 28 31 30 25 27 19 21 16 6 9 6 4 14 17 16 15 16 20 19 20 21 21 22 22 24 24 26 25 22 22 21 22 21 21 21 20 19 18 17
10 17 24 19 22 22 28 30 30 25 21 17 19 13 11 11 10 6 7 7 8 4 2 6 10 15 19 18 18 18 22 23 23 24 24 22 22 23 21 20 20 20 19 19
8 16 20 26 18 12 29 30 30 30 23 25 15 19 18 16 13 12 13 10 7 9 7 7 9 11 10 12 15 17 19 18 20 20 22 22 19 18 18 20 20 20 19 18
11 13 19 23 24 6 13 20 31 30 28 23 24 15 16 18 9 9 9 8 6 6 6 7 11 11 12 13 13 14 17 17 17 17 20 19 19 19 19 18 19 19 20 20
12 10 11 16 20 9 18 21 18 25 24 24 23 19 13 10 9 6 6 6 8 7 8 10 11 11 12 14 13 14 14 16 17 18 16 19 19 20 19 18 18 20 20 18
12 11 9 10 17 24 11 17 16 14 15 16 14 10 13 9 8 8 7 8 10 10 11 11 11 11 11 12 13 15 15 14 15 16 18 18 19 18 19 19 19 18 17 19
14 11 7 11 14 7 18 15 19 18 21 16 15 13 10 9 7 11 11 13 15 15 15 10 13 13 11 12 9 9 13 15 16 18 18 18 17 18 19 21 20 18 18 18
15 12 12 9 15 16 6 14 2 6 9 14 20 17 14 10 11 11 7 11 14 14 11 14 10 9 11 10 13 13 15 14 17 18 17 17 16 18 19 18 18 16 17 17
12 13 14 14 10 11 6 11 4 12 6 7 7 3 5 5 8 13 12 12 13 13 14 14 11 13 12 13 13 11 13 15 16 15 15 16 17 17 17 16 15 16 16 16
10 14 14 14 18 20 12 2 7 8 9 14 14 11 7 8 11 14 14 15 16 16 15 15 14 14 11 11 11 11 12 12 10 12 14 14 15 15 15 16 14 16 16 17
13 11 9 14 11 12 8 12 14 6 6 8 10 11 12 14 14 14 14 15 17 19 16 14 14 12 9 8 8 10 10 9 9 11 12 12 14 14 12 15 14 14 15 15
15 12 14 17 17 18 17 17 16 15 13 15 14 15 16 17 18 18 16 14 17 19 15 11 8 10 7 5 9 10 8 8 9 10 10 10 12 12 12 11 13 13 13 14
14 20 18 21 23 22 23 21 19 19 20 20 19 19 21 21 18 19 17 14 17 19 15 7 9 4 3 3 4 3 4 7 10 10 11 11 11 12 11 11 11 12 12 8
17 21 18 17 18 17 18 17 19 21 23 23 23 22 20 21 19 19 17 14 16 17 7 6 6 1 1 3 3 4 4 7 9 10 10 10 10 11 10 11 10 7 9 11
Wind_Direction
202 204 210 213 218 228 238 213 236 201 183 197 223 203 224 167 177 190 180 184 188 190 186 184 190 186 191 184 188 189 194 191 188 197 198 211 209 202 212 220 212 195 222 211
191 217 215 218 215 225 234 244 221 229 211 212 218 241 243 177 182 193 183 189 189 188 181 188 188 192 191 189 188 186 194 190 196 197 205 211 215 211 207 208 192 213 208 215
204 209 217 214 218 213 225 230 232 235 219 205 235 245 235 202 178 193 191 193 192 188 185 185 188 195 192 190 186 187 190 192 192 211 199 208 219 238 201 212 200 200 218 218
222 219 194 215 218 217 222 221 234 236 236 220 207 233 212 225 185 194 198 192 194 193 191 181 189 194 196 194 188 188 186 192 191 203 199 203 209 207 216 209 209 202 196 214
207 217 204 207 212 215 228 223 220 240 248 252 244 229 240 197 205 190 199 194 199 188 190 185 190 192 197 192 190 190 185 193 196 193 220 195 214 212 206 217 212 206 173 208
227 208 213 212 214 214 219 231 232 217 230 236 233 237 231 236 214 188 193 204 190 196 194 193 187 187 194 193 193 188 186 192 198 194 203 216 199 228 212 203 202 203 213 190
213 227 210 226 209 208 205 210 205 219 215 232 223 233 235 230 222 203 205 193 190 189 187 194 186 187 189 192 191 190 187 193 194 199 199 213 209 206 227 205 212 205 209 210
211 210 220 194 217 201 203 213 219 213 216 225 228 228 224 234 252 230 203 198 190 187 194 192 190 189 187 190 187 190 185 190 195 199 201 200 207 208 215 209 214 216 221 210
204 224 194 217 211 213 190 218 219 237 217 238 213 219 240 232 218 215 228 201 198 180 185 194 191 193 189 191 190 193 191 191 194 197 198 201 202 212 210 217 209 219 213 232
245 219 224 196 205 216 232 203 214 235 246 229 231 228 208 209 221 211 206 213 204 191 180 193 193 194 193 195 194 195 197 194 196 198 198 201 201 205 215 211 218 211 223 218
237 248 242 206 201 200 205 217 211 230 234 244 235 225 226 197 206 215 212 207 214 200 179 193 194 197 194 197 198 196 200 199 198 200 200 201 201 203 206 216 209 218 209 212
214 247 237 209 196 212 212 217 201 221 220 240 264 185 11 193 191 190 210 210 210 195 183 192 192 197 195 199 199 201 200 205 201 203 203 202 202 202 202 207 213 206 214 212
297 223 222 239 188 200 219 206 221 210 236 214 231 207 99 70 199 185 200 200 208 192 189 194 192 189 199 198 201 203 201 208 206 204 204 207 206 203 207 203 205 208 207 210
295 253 230 221 198 192 208 215 212 218 219 222 208 216 137 104 129 147 180 183 176 177 188 222 214 200 191 194 193 206 208 207 207 203 210 208 209 207 205 203 202 204 204 207
260 245 244 252 252 213 203 214 214 216 219 224 205 209 161 142 140 129 140 120 111 144 166 183 224 224 230 202 199 194 209 208 209 203 205 209 208 211 210 206 203 204 204 205
305 266 253 253 251 207 263 242 216 217 218 225 234 220 199 146 153 175 175 181 225 265 260 206 186 207 212 219 209 201 198 211 205 209 209 204 203 203 209 209 207 204 206 205
304 278 240 237 237 231 240 237 240 226 209 225 220 232 240 160 157 215 239 222 216 237 234 230 238 242 214 197 205 210 205 203 210 209 210 206 201 203 204 207 207 209 207 204
270 294 281 245 230 228 234 208 235 248 256 230 238 242 240 265 286 266 248 264 272 269 269 263 256 217 210 218 210 195 196 200 215 213 211 209 207 202 201 204 210 209 208 212
243 262 266 251 237 198 217 237 209 215 229 228 235 235 249 262 266 261 263 269 275 274 269 272 267 253 225 233 201 224 204 192 200 216 214 214 205 206 200 205 205 206 208 211
220 215 265 260 250 229 202 48 68 59 231 223 223 228 236 217 231 230 273 334 344 340 336 340 304 275 275 261 246 237 230 228 199 209 212 206 209 207 208 208 206 204 209 215
200 223 225 238 257 246 349 61 228 190 70 213 142 210 216 221 340 341 334 332 325 313 304 298 297 289 276 275 263 236 233 222 215 200 205 202 204 205 207 207 206 204 207 216
215 205 224 230 240 241 283 333 211 33 24 6 8 18 354 325 318 312 323 322 318 313 302 289 277 269 271 265 252 235 231 233 210 204 197 200 198 203 202 206 207 204 206 211
258 268 257 235 228 248 297 315 304 27 330 317 326 318 317 309 306 312 312 318 314 313 301 283 274 269 270 263 255 249 241 224 215 192 193 199 192 201 215 197 205 206 209 221
264 256 266 273 266 271 283 296 299 312 298 296 305 299 293 293 300 304 306 313 311 302 301 292 291 266 279 263 262 251 242 211 201 189 195 193 193 200 204 210 204 217 217 216
294 299 276 259 257 274 276 276 277 284 284 284 288 287 288 291 293 299 299 309 302 296 284 288 283 282 275 284 263 247 209 205 200 195 195 195 201 192 199 221 213 215 227 232
265 274 271 265 264 267 259 261 262 256 260 276 283 287 280 293 294 295 296 308 292 285 307 296 283 307 137 127 81 17 357 198 207 196 194 190 196 179 209 200 224 114 117 119